Location: Treviso
(45.6669°N, 12.2430°E)
Time: 19:45:10
(UTC+02:00)

ISS - Pass Details

Date: 21 May 2018
Orbit: 402 x 407 km, 51.6° (Epoch: 25 May)

Event Time Altitude Azimuth Distance (km) Brightness Sun altitude
Rises 22:14:28 0° 228° (SW) 2,309 0.0 -13.2°
Reaches altitude 10° 22:16:34 10° 224° (SW) 1,452 -1.1 -13.5°
Maximum altitude 22:19:45 54° 146° (SE) 498 -3.8 -13.8°
Drops below altitude 10° 22:22:56 10° 68° (ENE) 1,458 -1.2 -14.2°
Sets 22:25:03 0° 64° (ENE) 2,320 -0.1 -14.4°
